Погода Куминская

Погода Куминская : погода сейчас, прогноз погоды и архив. Всё, что Вы хотите узнать о погоде Куминская!

Поиск расширенной информации на нашем сайте:

Полезная информация: погода в петропавловске-камчатском

Другие новости

Новости СМИ2

Главная страница сайта

Новости сайта

03.07.2017

Напоминаем, что на нашем специализированном сайте Метеоцентр.Азия вы можете получить высокодетализированные автоматические прогнозы погоды по пунктам России, СНГ и мира в авиационном формате (включающие направление и скорость ветра, видимость, явления погоды, количество и форму облачности, нижнюю и верхнюю границу облачности).

Рекомендуем: сауны города екатеринбурга

Погода Куминская - сегодня

Время (UTC), дата Ветер
(°,м/с) 
Видим.   Явления Облачность Т
(°С)
Тd
(°С)
f(%) Тe
(°С)
Pmin
(гПа)
dP
(гПа)
Po
(мм)
O2
(г/м3)
Тmin Tmax R s Состояние
почвы
18 20.11.17 180 (Ю) 7000 м  слаб. ливневой снег  10/10 300 м кучево-дожд. 
[Cb cap]
-1.9 -2.5 96 -1  1023.6  -0.7  760  309           
21 20.11.17 190 (Ю) 50000 м  {ливн. осадки}  ясно 
-2.5 -2.9 97 -2  1022.8  -0.8  759  309           
00 21.11.17 170 (Ю) 50000 м  {ливн. осадки}  10/10 300 м кучево-дожд. 
[Cb cap]
-1.6 -2.2 96 -3  1021.1  -1.7  758  308           
03 21.11.17 230 (ЮЗ) 50000 м    10/10 300 м кучево-дожд. 
[Cb cap]
-0.7 -1.9 92 -2  1021.4  0.4  758  307  -2.9    0.0  13  равномерный
сухой снег
100% 
06 21.11.17 220 (ЮЗ) н/о    н/о 
-0 -1.4 90 -2  1022.1  0.7  759  306           
09 21.11.17 230 (ЮЗ) 10 км    10/10 600 м 
[Sc]
+1.4 -0.1 90 +1  1022.7  0.6  759  304           
12 21.11.17 190 (Ю) н/о    н/о 
+0.8 +0.4 97 +1  1023.5  0.8  760  305           
15 21.11.17 160 (Ю) 50000 м    ясно 
+0.3 +0.1 99 +1  1023.2  -0.3  760  306    +1.5       
18 21.11.17 180 (Ю) 50000 м    ясно 
-0.8 -1 99 1022.5  -0.7  759  307           
21 21.11.17 180 (Ю) 40000 м    ясно 
-2 -3.9 87 -3  1021.9  -0.6  759  308           
00 22.11.17 170 (Ю) 50000 м    10/0 средняя 
[Ac und]
-2.5 -4.8 84 -4  1021  -0.9  758  309           
03 22.11.17 200 (Ю) 50000 м    10/0 средняя, верхняя 
[Ac trans|Ci fib]
-3.2 -5.3 85 -3  1020.7  -0.3  758  310  -3.3      11  равномерный
сухой снег
100% 
06 22.11.17 170 (Ю) н/о    н/о 
-3.2 -5.7 83 -4  1020.8  0.1  758  310  -3.9         
09 22.11.17 170 (Ю) 10 км    10/0 верхняя 
[Cc]
-1.6 -4.6 80 -1  1020.7  0.1  758  308           
12 22.11.17 140 (ЮВ) н/о    н/о 
-4.1 -5.5 90 -4  1021.2  0.4  758  311           
15 22.11.17 170 (Ю) 50000 м    ясно 
-5.6 -6.2 96 -5  1020.8  -0.5  758  312    -1.5       
18 22.11.17 150 (ЮВ) 50000 м    ясно 
-6.5 -7 96 -6  1020.6  -0.2  758  313           
21 22.11.17 150 (ЮВ) 50000 м    ясно 
-6.5 -7 96 -6  1020.3  -0.3  757  313           
00 23.11.17 170 (Ю) 50000 м    4/0 верхняя 
[Ci fib]
-6.6 -7 97 -6  1019.9  -0.3  757  313           
03 23.11.17 150 (ЮВ) 50000 м    8/0 средняя, верхняя 
[Ac trans|Ci fib]
-6.6 -7.1 96 -6  1020.2  0.3  757  313  -7      11  равномерный
сухой снег
100% 
06 23.11.17 190 (Ю) н/о    н/о 
-4.2 -5.4 91 -4  1020.1  757  310           
09 23.11.17 160 (Ю) 10 км    6/0 средняя, верхняя 
[Ac trans|Ci fib]
-1.3 -4.3 80 -1  1019.9  0.1  757  307           
12 23.11.17 170 (Ю) н/о    н/о 
-2.7 -4.8 85 -2  1020  757  309           
15 23.11.17 180 (Ю) 50000 м    10/0 средняя, верхняя 
[Ac trans|Ci fib]
-2 -4.6 82 -1  1019.3  -0.6  757  308    -1.3       
18 23.11.17 180 (Ю) 50000 м    ясно 
-2.9 -5.4 83 -4  1018.9  -0.4  756  309           
Время (UTC), дата Ветер
(°,м/с) 
Видим.   Явления Облачность Т
(°С)
Тd
(°С)
f(%) Тe
(°С)
Pmin
(гПа)
dP
(гПа)
Po
(мм)
O2
(г/м3)
Тmin Tmax R s Состояние
почвы

Для получения пояснительной информации подведите курсор к названию столбца.

ПОГОДА Куминская - архив

Всё, что Вы хотите узнать о погоде Куминская - удобно и подробно!

Выберите нужную дату (начиная с 1 января 2015* года) и нажмите кнопку "Найти".
Будут отображены архивные сводки погоды по пункту Куминская, начиная с указанной даты.


Отображать данные в формате CSV (для использования в таблицах Excel)


Внимание! Наш архив погоды предназначен исключительно для личного некоммерческого использования в познавательных целях. Если Вам необходимы официальные справки о состоянии погоды (для производственных, юридических, коммерческих и т.п. целей), обращайтесь в органы Росгидромета.

*Примечание: данная дата относится к архиву по метеостанциям СССР (Россия, СНГ, Балтия).
Архив по метеостанциям Зарубежной Европы и Азии (кроме Китая) хранится 10 дней, по другим регионам земного шара (Китай, Африка, Америка, Австралия, Океания) - 1 день.

Куминская - район местоположения метеостанции


Название, широта, долгота, высота метеостанции:
Куминская 58.8°ш. 66°д. 64 м над ур. моря [Российская Федерация]

Дополнительная информация

В oтличие oт бoльшинства пoгoдных сайтoв мы публикуем пoдрoбную метеoинфoрмацию в детальнoм прoфессиoнальнoм фoрмате.

Характеристики температуры и влажнoсти вoздуха измеряются на высoте 2 м в тени вдали oт зданий и деревьев.
Скoрoсть ветра измеряется на высoте 10 м (на урoвне рoста челoвека скoрoсть ветра ниже в 1.5-2 раза). Если метеoстанция нахoдится в гoрoде или в лесу, тo скoрoсть ветра занижена на 2-4 м/с пo сравнению с oткрытым местoм. Скoрoсть ветра над акватoриями крупных рек и oзёр, а также на вершинах хoлмoв на 2-5 м/с выше, чем в oбычных услoвиях.
Атмoсфернoе давление в разных тoчках местнoсти мoжет значительнo oтличаться oт давления на метеoстанции, в зависимoсти oт услoвий рельефа (при пoдъёме на 10 м давление пoнижается примернo на 1 мм рт.ст.).